When you browse on this site, cookies collect data to enhance your experience and personalize the content and advertising you see.
Visit our Privacy Policy to learn more. By continuing to use the site, you agree to this use of cookies and data.
  • In Spain
  • List of Countries
  • For 7 days
  • Water Temperature
  • Satellite Maps
  • Weather Map
  • Weather Widgets
  • user-avatar
    Login

    Hourly Weather Newcastle

    Today, 19 December, Wednesday

    Time Temperature Precipitation Wind Pressure Humidity
    00:00 +23°C° 0 mm 2 mps 759 mmHg 97%
    01:00 +23°C° 0 mm 2 mps 759 mmHg 97%
    02:00 +23°C° 0 mm 2 mps 759 mmHg 97%
    03:00 +23°C° 0 mm 1 mps 759 mmHg 98%
    04:00 +23°C° 0 mm 1 mps 759 mmHg 97%
    05:00 +24°C° 0 mm 1 mps 759 mmHg 94%
    06:00 +24°C° 0 mm 1 mps 759 mmHg 91%
    07:00 +25°C° 0 mm 1 mps 759 mmHg 88%
    08:00 +26°C° 0 mm 1 mps 759 mmHg 81%
    09:00 +28°C° 0 mm 1 mps 759 mmHg 74%
    10:00 +30°C° 0 mm 1 mps 759 mmHg 65%
    11:00 +31°C° 0 mm 2 mps 759 mmHg 63%
    12:00 +31°C° 0 mm 2 mps 758 mmHg 61%
    13:00 +33°C° 0 mm 3 mps 758 mmHg 58%
    14:00 +31°C° 0 mm 3 mps 758 mmHg 60%
    15:00 +31°C° 0 mm 3 mps 757 mmHg 62%
    16:00 +30°C° 0 mm 4 mps 757 mmHg 64%
    17:00 +28°C° 1.6 mm 4 mps 757 mmHg 75%
    18:00 +26°C° 1.6 mm 4 mps 757 mmHg 85%
    19:00 +23°C° 1.6 mm 4 mps 757 mmHg 95%
    20:00 +23°C° 2.9 mm 4 mps 757 mmHg 96%
    21:00 +23°C° 2.9 mm 4 mps 758 mmHg 96%
    22:00 +23°C° 2.9 mm 4 mps 758 mmHg 97%
    23:00 +22°C° 0 mm 3 mps 758 mmHg 97%

    Tomorrow, 20 December, Thursday

    Time Temperature Precipitation Wind Pressure Humidity
    00:00 +23°C° 0 mm 2 mps 757 mmHg 98%
    01:00 +23°C° 0 mm 1 mps 757 mmHg 98%
    02:00 +23°C° 0 mm 1 mps 756 mmHg 98%
    03:00 +23°C° 0 mm 1 mps 756 mmHg 98%
    04:00 +23°C° 0 mm 1 mps 756 mmHg 98%
    05:00 +23°C° 0 mm 1 mps 755 mmHg 96%
    06:00 +24°C° 0 mm 1 mps 755 mmHg 93%
    07:00 +25°C° 0 mm 1 mps 755 mmHg 90%
    08:00 +28°C° 0 mm 1 mps 755 mmHg 77%
    09:00 +31°C° 0 mm 1 mps 755 mmHg 64%
    10:00 +35°C° 0 mm 1 mps 755 mmHg 50%
    11:00 +37°C° 0 mm 3 mps 754 mmHg 46%
    12:00 +40°C° 0 mm 4 mps 753 mmHg 41%
    13:00 +41°C° 0 mm 5 mps 752 mmHg 37%
    14:00 +41°C° 0.2 mm 5 mps 751 mmHg 38%
    15:00 +40°C° 0.2 mm 6 mps 750 mmHg 40%
    16:00 +40°C° 0.2 mm 6 mps 749 mmHg 41%
    17:00 +38°C° 0.3 mm 7 mps 749 mmHg 47%
    18:00 +35°C° 0.3 mm 8 mps 748 mmHg 52%
    19:00 +33°C° 0.3 mm 8 mps 747 mmHg 58%
    20:00 +33°C° 0 mm 7 mps 748 mmHg 56%
    21:00 +33°C° 0 mm 6 mps 748 mmHg 53%
    22:00 +32°C° 0 mm 5 mps 748 mmHg 51%
    23:00 +30°C° 0 mm 6 mps 749 mmHg 63%

    Day after tomorrow, 21 December, Friday

    Time Temperature Precipitation Wind Pressure Humidity
    00:00 +28°C° 0 mm 6 mps 749 mmHg 74%
    01:00 +26°C° 0 mm 6 mps 750 mmHg 86%
    02:00 +24°C° 0 mm 6 mps 750 mmHg 87%
    03:00 +24°C° 0 mm 7 mps 750 mmHg 88%
    04:00 +23°C° 0 mm 7 mps 751 mmHg 89%
    05:00 +23°C° 0 mm 7 mps 752 mmHg 85%
    06:00 +23°C° 0 mm 7 mps 752 mmHg 82%
    07:00 +23°C° 0 mm 7 mps 753 mmHg 79%
    08:00 +23°C° 0 mm 7 mps 753 mmHg 76%
    09:00 +24°C° 0 mm 6 mps 754 mmHg 73%
    10:00 +24°C° 0 mm 6 mps 754 mmHg 70%
    11:00 +24°C° 0 mm 6 mps 754 mmHg 69%
    12:00 +24°C° 0 mm 6 mps 753 mmHg 68%
    13:00 +26°C° 0 mm 6 mps 753 mmHg 67%
    14:00 +25°C° 0 mm 5 mps 753 mmHg 66%
    15:00 +25°C° 0 mm 5 mps 752 mmHg 66%
    16:00 +25°C° 0 mm 5 mps 752 mmHg 65%
    17:00 +23°C° 0 mm 5 mps 753 mmHg 70%
    18:00 +22°C° 0 mm 4 mps 753 mmHg 75%
    19:00 +21°C° 0 mm 4 mps 754 mmHg 80%
    20:00 +21°C° 0 mm 3 mps 754 mmHg 82%
    21:00 +20°C° 0 mm 3 mps 755 mmHg 85%
    22:00 +20°C° 0 mm 2 mps 755 mmHg 87%
    23:00 +20°C° 0 mm 3 mps 755 mmHg 87%

    22 December, Saturday

    Time Temperature Precipitation Wind Pressure Humidity
    00:00 +20°C° 0 mm 3 mps 755 mmHg 87%
    01:00 +20°C° 0 mm 3 mps 754 mmHg 86%
    02:00 +19°C° 0 mm 3 mps 755 mmHg 88%
    03:00 +19°C° 0 mm 3 mps 755 mmHg 89%
    04:00 +19°C° 0 mm 3 mps 755 mmHg 91%
    05:00 +19°C° 0.1 mm 3 mps 755 mmHg 87%
    06:00 +20°C° 0.1 mm 4 mps 756 mmHg 84%
    07:00 +21°C° 0.1 mm 4 mps 756 mmHg 80%
    08:00 +21°C° 0.1 mm 5 mps 757 mmHg 76%
    09:00 +22°C° 0.1 mm 5 mps 757 mmHg 73%
    10:00 +23°C° 0.1 mm 6 mps 757 mmHg 69%
    11:00 +23°C° 0.1 mm 6 mps 757 mmHg 66%
    12:00 +23°C° 0.1 mm 7 mps 757 mmHg 62%
    13:00 +24°C° 0.1 mm 7 mps 757 mmHg 59%
    14:00 +23°C° 0 mm 7 mps 757 mmHg 59%
    15:00 +23°C° 0 mm 7 mps 758 mmHg 60%
    16:00 +22°C° 0 mm 7 mps 758 mmHg 60%
    17:00 +21°C° 0 mm 7 mps 759 mmHg 65%
    18:00 +20°C° 0 mm 6 mps 760 mmHg 69%
    19:00 +19°C° 0 mm 6 mps 760 mmHg 74%
    20:00 +17°C° 0 mm 5 mps 761 mmHg 76%
    21:00 +17°C° 0 mm 5 mps 762 mmHg 78%
    22:00 +16°C° 0 mm 5 mps 762 mmHg 81%
    23:00 +16°C° 0 mm 5 mps 762 mmHg 82%

    23 December, Sunday

    Time Temperature Precipitation Wind Pressure Humidity
    00:00 +16°C° 0 mm 5 mps 762 mmHg 82%
    01:00 +16°C° 0 mm 5 mps 762 mmHg 83%
    02:00 +15°C° 0 mm 5 mps 762 mmHg 83%
    03:00 +15°C° 0 mm 5 mps 762 mmHg 83%
    04:00 +15°C° 0 mm 5 mps 762 mmHg 84%
    05:00 +16°C° 0 mm 5 mps 763 mmHg 79%
    06:00 +17°C° 0 mm 5 mps 763 mmHg 74%
    07:00 +20°C° 0 mm 5 mps 764 mmHg 68%
    08:00 +21°C° 0.1 mm 5 mps 764 mmHg 65%
    09:00 +22°C° 0.1 mm 4 mps 764 mmHg 61%
    10:00 +23°C° 0.1 mm 4 mps 764 mmHg 57%
    11:00 +25°C° 0.2 mm 4 mps 764 mmHg 55%
    12:00 +26°C° 0.2 mm 4 mps 764 mmHg 54%
    13:00 +26°C° 0.2 mm 3 mps 764 mmHg 52%
    14:00 +26°C° 0 mm 4 mps 764 mmHg 52%
    15:00 +26°C° 0 mm 4 mps 763 mmHg 52%
    16:00 +26°C° 0 mm 4 mps 763 mmHg 53%
    17:00 +24°C° 0 mm 3 mps 764 mmHg 60%
    18:00 +21°C° 0 mm 3 mps 765 mmHg 67%
    19:00 +20°C° 0 mm 2 mps 765 mmHg 75%
    20:00 +19°C° 0 mm 2 mps 766 mmHg 79%
    21:00 +18°C° 0 mm 2 mps 766 mmHg 83%
    22:00 +17°C° 0 mm 2 mps 766 mmHg 87%
    23:00 +17°C° 0 mm 2 mps 766 mmHg 89%

    24 December, Monday

    Time Temperature Precipitation Wind Pressure Humidity
    00:00 +16°C° 0 mm 2 mps 766 mmHg 90%
    01:00 +16°C° 0 mm 2 mps 765 mmHg 92%
    02:00 +15°C° 0 mm 1 mps 765 mmHg 93%
    03:00 +15°C° 0 mm 1 mps 765 mmHg 94%
    04:00 +15°C° 0 mm 1 mps 766 mmHg 95%
    05:00 +18°C° 0 mm 1 mps 766 mmHg 87%
    06:00 +20°C° 0 mm 1 mps 766 mmHg 78%
    07:00 +22°C° 0 mm 1 mps 767 mmHg 69%
    08:00 +24°C° 0 mm 2 mps 766 mmHg 62%
    09:00 +25°C° 0 mm 2 mps 766 mmHg 55%
    10:00 +27°C° 0 mm 3 mps 766 mmHg 48%
    11:00 +28°C° 0 mm 3 mps 765 mmHg 46%
    12:00 +28°C° 0 mm 4 mps 765 mmHg 45%
    13:00 +29°C° 0 mm 4 mps 765 mmHg 44%
    14:00 +29°C° 0 mm 5 mps 764 mmHg 46%
    15:00 +28°C° 0 mm 5 mps 764 mmHg 49%
    16:00 +28°C° 0 mm 5 mps 764 mmHg 51%
    17:00 +26°C° 0 mm 5 mps 764 mmHg 58%
    18:00 +23°C° 0 mm 5 mps 764 mmHg 65%
    19:00 +21°C° 0 mm 5 mps 765 mmHg 72%
    20:00 +21°C° 0 mm 5 mps 765 mmHg 74%
    21:00 +20°C° 0 mm 5 mps 765 mmHg 76%
    22:00 +19°C° 0 mm 5 mps 765 mmHg 78%
    23:00 +17°C° 0 mm 5 mps 765 mmHg 81%
    Show more